STARLINK-3880, 52334

Orbit data source: Space-Track

STARLINK-3880, 52334 is a payload satellite owned by SpaceX/Seattle (US) in LEO that was launched on Fri, 29 Apr 2022 UTC via an FALCON 9 launch vehicle from the Air Force Eastern Test Range (AFETR). Payload-class satellites include a variety of spacecraft equipped with specific instruments for various scientific and technological missions. These include communications satellites like Starlink; space stations such as the ISS; scientific satellites like the Hubble; Earth observation satellites from companies like Planet Labs, Umbra, and HawkEye 360; GPS; miniature CubeSats for education and research; and military/defense satellites.

Loading next visibility...
Identifier
52334, 2022-045D
Orbit
LEO
Country
Flag of USUS
Related business
Manufacturer
SpaceX/Seattle
Mission
Operational Commercial Communications
Bus & Motor
STARLINK, Unknown motor
Mass
297 kg wet, ~275 kg dry
Launch date (UTC)
2022-04-29 (4 years ago)
Launch vehicle
FALCON 9
Launch site
Air Force Eastern Test Range (AFETR)
Object type
Payload
Rocket body
Debris
Shape & HBR
Box + 1 Pan, 10.1 m
Radar Cross Section
11.087 m², Large (>1 m²)

Expand to show TLE details & history
Last TLE update: 1 day ago

TLE from 1 day ago
0 STARLINK-3880
1 52334U 22045D   25349.05528174  .00000493  00000-0  49076-4 0  9991
2 52334  53.2170 229.0605 0001334  94.0210 266.0934 15.08833656202850
Epoch: 2025-12-15T01:19Z
TLE epoch observation values (Epoch: 2025-12-15T01:19:36.342Z)
Latitude
-0.00007°
Longitude
125.19968°
Altitude
540.723 km
Speed
7.593 km/s
True Right ascension
15h 16m 14s
True Declination
0° 00' 00"
Sunlit
Object was in daylight at epoch
Visualization orbit readout
Latitude
Unknown
Longitude
Unknown
Altitude
Unknown
Speed
Unknown
Apparent Right ascension
Unknown
Apparent Declination
Unknown
Sunlit
N/A
Visualization observer readout
Local Sidereal Time
00:19:40
Azimuth
Unknown
Elevation
Unknown
Doppler factor
Unknown
Orbital elements
Apogee altitude
540.931 km
Perigee altitude
539.085 km
Semi-major axis
6,918.145 km
Eccentricity
0.00013
Inclination
53.217°
RAAN
229.0605°
Arg. of periapsis
94.021°
True anomaly
266.07815°
Mean anomaly
266.0934°
Eccentric anomaly
266.08577°
Mean motion
3.77189 °/min
Orbital period
95.44 mins
BSTAR
0.000049076
Loading maneuver chart data...
Computing Atmospheric mass density...
Loading historical data...
Loading historical data...
Loading historical data...
Loading historical data...
Loading historical data...
Loading historical data...
Loading historical data...

Documentation

Showing up to 5 results
|